STARLINK-2386, 47805

Orbit data source: Space-Track

STARLINK-2386, 47805 is a payload satellite owned by SpaceX/Seattle (US) in LEO that was launched on Thu, 11 Mar 2021 UTC via an FALCON 9 launch vehicle from the Air Force Eastern Test Range (AFETR). Payload-class satellites include a variety of spacecraft equipped with specific instruments for various scientific and technological missions. These include communications satellites like Starlink; space stations such as the ISS; scientific satellites like the Hubble; Earth observation satellites from companies like Planet Labs, Umbra, and HawkEye 360; GPS; miniature CubeSats for education and research; and military/defense satellites.

Loading next visibility...
Identifier
47805, 2021-018U
Orbit
LEO
Country
Flag of USUS
Related business
Manufacturer
SpaceX/Seattle
Mission
Operational Commercial Communications
Bus & Motor
STARLINK, Unknown motor
Mass
260 kg wet, ~248 kg dry
Launch date (UTC)
2021-03-11 (5 years ago)
Launch vehicle
FALCON 9
Launch site
Air Force Eastern Test Range (AFETR)
Object type
Payload
Rocket body
Debris
Shape & HBR
Box + 1 Pan, 10.1 m
Radar Cross Section
13.562 m², Large (>1 m²)

Expand to show TLE details & history
Last TLE update: 14 hours ago

TLE from 14 hours ago
0 STARLINK-2386
1 47805U 21018U   26119.94985039  .00033098  00000-0  15280-2 0  9993
2 47805  53.1121   0.9232 0001413  81.3227 278.7929 15.19943864284612
Epoch: 2026-04-29T22:47Z
TLE epoch observation values (Epoch: 2026-04-29T22:47:47.073Z)
Latitude
-0.00001°
Longitude
161.07359°
Altitude
506.752 km
Speed
7.612 km/s
True Right ascension
00h 03m 41s
True Declination
0° 00' 00"
Sunlit
Object was in daylight at epoch
Visualization orbit readout
Latitude
Unknown
Longitude
Unknown
Altitude
Unknown
Speed
Unknown
Apparent Right ascension
Unknown
Apparent Declination
Unknown
Sunlit
N/A
Visualization observer readout
Local Sidereal Time
20:14:13
Azimuth
Unknown
Elevation
Unknown
Doppler factor
Unknown
Orbital elements
Apogee altitude
507.246 km
Perigee altitude
505.3 km
Semi-major axis
6,884.41 km
Eccentricity
0.00014
Inclination
53.1121°
RAAN
0.9232°
Arg. of periapsis
81.3227°
True anomaly
278.7769°
Mean anomaly
278.7929°
Eccentric anomaly
278.7849°
Mean motion
3.79965 °/min
Orbital period
94.75 mins
BSTAR
0.001528
Loading maneuver chart data...
Computing Atmospheric mass density...
Loading historical data...
Loading historical data...
Loading historical data...
Loading historical data...
Loading historical data...
Loading historical data...
Loading historical data...

Documentation

Showing up to 5 results
|